{"data":{"norad_id":53579,"intl_designator":"2022-101BE","name":"STARLINK-4580","alt_names":[],"object_type":"PAYLOAD","status":"ACTIVE","operator":null,"country":"US","launch_date":"2022-08-19","launch_site_code":"AFETR","launch_vehicle":null,"mission":null,"orbit_class":"UNKNOWN","rcs_meters":null,"size_class":null,"mass_kg":null,"dimensions":null,"purposes":["comms"],"wikipedia_slug":null,"has_3d_model":false,"image_url":null,"decayed_at":null,"tle_current":{"epoch":"2026-09-20T15:39:27.829152Z","epoch_age_seconds":65079,"freshness":"FRESH","line1":"1 53579U 22101BE  26263.65240543  .00000364  00000+0  21918-4 0  9990","line2":"2 53579  53.1581 243.1038 0001305  93.0310 267.0842 15.34386755226095","mean_motion":15.34386755,"eccentricity":0.0001305,"inclination_deg":53.1581,"raan_deg":243.1038,"arg_perigee_deg":93.031,"mean_anomaly_deg":267.0842,"bstar":2.1918e-5,"rev_number":22609,"period_min":93.848568185796,"perigee_km":461.84987263278,"apogee_km":463.63534221031,"semimajor_km":6840.8796074215,"source":"CELESTRAK","updated_at":"2026-09-21T09:00:32.933700Z"}}}